Time,TemperatureF,DewpointF,PressureIn,WindDirection,WindDirectionDegrees,WindSpeedMPH,WindSpeedGustMPH,Humidity,HourlyPrecipIn,Conditions,Clouds,dailyrainin,SoftwareType,DateUTC
2013-01-30 00:00:00,55.9,52.7,29.54,South,180,4.0,10.0,89,0.00,,,0.00,VWS V14.01,2013-01-30 05:00:00,
2013-01-30 00:30:00,56.2,53.0,29.50,SSE,158,4.0,10.0,89,0.00,,,0.00,VWS V14.01,2013-01-30 05:30:00,
2013-01-30 01:00:00,56.8,53.6,29.47,South,180,5.0,11.0,89,0.00,,,0.00,VWS V14.01,2013-01-30 06:00:00,
2013-01-30 01:30:00,56.9,54.0,29.44,South,180,6.0,15.0,90,0.03,,,0.03,VWS V14.01,2013-01-30 06:30:00,
2013-01-30 02:00:00,57.3,54.4,29.41,South,180,6.0,14.0,90,0.04,,,0.04,VWS V14.01,2013-01-30 07:00:00,
2013-01-30 02:30:00,59.0,56.1,29.40,South,180,7.0,14.0,90,0.04,,,0.04,VWS V14.01,2013-01-30 07:30:00,
2013-01-30 03:00:00,60.2,56.6,29.38,South,180,9.0,16.0,88,0.01,,,0.04,VWS V14.01,2013-01-30 08:00:00,
2013-01-30 03:30:00,55.5,51.7,29.43,West,270,4.0,15.0,87,0.10,,,0.14,VWS V14.01,2013-01-30 08:30:00,
2013-01-30 04:00:00,53.0,49.8,29.44,West,270,1.0,10.0,89,0.11,,,0.15,VWS V14.01,2013-01-30 09:00:00,
2013-01-30 04:30:00,52.2,49.4,29.44,West,270,0.0,4.0,90,0.13,,,0.17,VWS V14.01,2013-01-30 09:30:00,
2013-01-30 05:00:00,51.5,49.0,29.46,West,270,0.0,2.0,91,0.04,,,0.18,VWS V14.01,2013-01-30 10:00:00,
2013-01-30 05:30:00,51.2,48.7,29.47,West,270,0.0,5.0,91,0.06,,,0.21,VWS V14.01,2013-01-30 10:30:00,
2013-01-30 06:00:00,50.6,48.1,29.45,WSW,248,0.0,3.0,91,0.06,,,0.23,VWS V14.01,2013-01-30 11:00:00,
2013-01-30 06:30:00,49.9,47.4,29.44,WSW,248,0.0,0.0,91,0.07,,,0.25,VWS V14.01,2013-01-30 11:30:00,
2013-01-30 07:00:00,50.1,47.9,29.43,WSW,248,0.0,1.0,92,0.04,,,0.25,VWS V14.01,2013-01-30 12:00:00,
2013-01-30 07:30:00,49.8,47.6,29.38,WSW,248,0.0,0.0,92,0.02,,,0.25,VWS V14.01,2013-01-30 12:30:00,
2013-01-30 08:00:00,49.6,47.4,29.38,South,180,1.0,3.0,92,0.00,,,0.25,VWS V14.01,2013-01-30 13:00:00,
2013-01-30 08:30:00,49.8,47.6,29.20,South,180,0.0,3.0,92,0.00,,,0.25,VWS V14.01,2013-01-30 13:30:00,
2013-01-30 09:00:00,49.9,47.7,29.23,South,180,0.0,4.0,92,0.00,,,0.25,VWS V14.01,2013-01-30 14:00:00,
2013-01-30 09:30:00,50.0,47.8,29.26,South,180,1.0,4.0,92,0.00,,,0.25,VWS V14.01,2013-01-30 14:30:00,
2013-01-30 10:00:00,50.3,48.1,29.29,South,180,0.0,3.0,92,0.00,,,0.25,VWS V14.01,2013-01-30 15:00:00,
2013-01-30 10:30:00,50.6,48.4,29.26,South,180,1.0,4.0,92,0.00,,,0.25,VWS V14.01,2013-01-30 15:30:00,
2013-01-30 11:00:00,51.3,49.3,29.25,South,180,2.0,5.0,93,0.00,,,0.25,VWS V14.01,2013-01-30 16:00:00,
2013-01-30 11:30:00,51.7,49.5,29.23,South,180,3.0,6.0,92,0.00,,,0.25,VWS V14.01,2013-01-30 16:30:00,
2013-01-30 12:00:00,52.2,50.0,29.22,South,180,4.0,9.0,92,0.00,,,0.25,VWS V14.01,2013-01-30 17:00:00,
2013-01-30 12:30:00,51.9,49.4,29.18,South,180,3.0,10.0,91,0.00,,,0.25,VWS V14.01,2013-01-30 17:30:00,
2013-01-30 13:00:00,51.8,48.7,29.19,South,180,4.0,9.0,89,0.00,,,0.25,VWS V14.01,2013-01-30 18:00:00,
2013-01-30 13:30:00,51.7,48.6,29.19,South,180,4.0,7.0,89,0.00,,,0.25,VWS V14.01,2013-01-30 18:30:00,
2013-01-30 14:00:00,51.1,48.3,29.16,South,180,3.0,9.0,90,0.00,,,0.25,VWS V14.01,2013-01-30 19:00:00,
2013-01-30 14:30:00,51.0,48.2,29.15,South,180,3.0,9.0,90,0.00,,,0.25,VWS V14.01,2013-01-30 19:30:00,
2013-01-30 15:00:00,51.0,48.5,29.12,South,180,3.0,6.0,91,0.00,,,0.25,VWS V14.01,2013-01-30 20:00:00,
2013-01-30 15:30:00,51.1,48.6,29.14,South,180,3.0,6.0,91,0.00,,,0.25,VWS V14.01,2013-01-30 20:30:00,
2013-01-30 16:00:00,51.1,48.0,29.15,South,180,4.0,7.0,89,0.00,,,0.25,VWS V14.01,2013-01-30 21:00:00,
2013-01-30 16:30:00,51.1,47.4,29.13,South,180,4.0,7.0,87,0.00,,,0.25,VWS V14.01,2013-01-30 21:30:00,
2013-01-30 17:00:00,50.7,47.0,29.10,South,180,4.0,10.0,87,0.00,,,0.25,VWS V14.01,2013-01-30 22:00:00,
2013-01-30 17:30:00,50.5,46.8,29.09,South,180,5.0,9.0,87,0.00,,,0.25,VWS V14.01,2013-01-30 22:30:00,
2013-01-30 18:00:00,46.0,41.8,29.12,SSW,202,4.0,12.0,85,0.04,,,0.29,VWS V14.01,2013-01-30 23:00:00,
2013-01-30 18:30:00,44.4,40.8,29.12,SSW,202,2.0,8.0,87,0.05,,,0.30,VWS V14.01,2013-01-30 23:30:00,
2013-01-30 19:00:00,43.3,40.0,29.10,SSW,202,1.0,6.0,88,0.06,,,0.31,VWS V14.01,2013-01-31 00:00:00,
2013-01-30 19:30:00,42.8,39.8,29.14,SW,225,2.0,13.0,89,0.04,,,0.33,VWS V14.01,2013-01-31 00:30:00,
2013-01-30 20:00:00,40.0,36.5,29.13,SSW,202,4.0,12.0,87,0.03,,,0.33,VWS V14.01,2013-01-31 01:00:00,
2013-01-30 20:30:00,39.2,36.0,29.13,SSW,202,2.0,6.0,88,0.02,,,0.33,VWS V14.01,2013-01-31 01:30:00,
2013-01-30 21:00:00,38.4,34.9,29.14,South,180,3.0,7.0,87,0.00,,,0.33,VWS V14.01,2013-01-31 02:00:00,
2013-01-30 21:30:00,38.0,34.5,29.13,South,180,2.0,7.0,87,0.00,,,0.33,VWS V14.01,2013-01-31 02:30:00,
2013-01-30 22:00:00,36.5,32.7,29.16,SW,225,3.0,16.0,86,0.00,,,0.33,VWS V14.01,2013-01-31 03:00:00,
2013-01-30 22:30:00,34.4,30.9,29.20,WSW,248,3.0,18.0,87,0.01,,,0.34,VWS V14.01,2013-01-31 03:30:00,
2013-01-30 23:00:00,33.0,29.3,29.22,SW,225,3.0,17.0,86,0.01,,,0.34,VWS V14.01,2013-01-31 04:00:00,
2013-01-30 23:30:00,31.4,26.8,29.26,SW,225,4.0,23.0,83,0.01,,,0.34,VWS V14.01,2013-01-31 04:30:00,